| time (UTC) | temp F | wind direction | speed MPH | gust MPH | rain 1hr in | rain 24hr in | rain mn in | humidity % | barometer mb |
| 20260901114514 | 65 | 210 | 1.0 | 6.0 | 0.00 | 0.00 | 0.00 | 45 | 1005.4 |
| 20260901113006 | 65 | 226 | 0.0 | 2.0 | 0.00 | 0.00 | 0.00 | 45 | 1005.4 |
| 20260901111503 | 65 | 183 | 1.0 | 2.0 | 0.00 | 0.00 | 0.00 | 44 | 1005.2 |
| 20260901110001 | 66 | 193 | 0.0 | 2.0 | 0.00 | 0.00 | 0.00 | 44 | 1005.4 |
| 20260901104606 | 66 | 191 | 1.0 | 3.0 | 0.00 | 0.00 | 0.00 | 42 | 1005.4 |
| 20260901103059 | 66 | 233 | 1.0 | 4.0 | 0.00 | 0.00 | 0.00 | 40 | 1005.4 |
| 20260901101556 | 67 | 232 | 1.0 | 7.0 | 0.00 | 0.00 | 0.00 | 39 | 1005.2 |
| 20260901100056 | 67 | 217 | 1.0 | 4.0 | 0.00 | 0.00 | 0.00 | 38 | 1005.2 |
| 20260901094555 | 67 | 215 | 1.0 | 3.0 | 0.00 | 0.00 | 0.00 | 38 | 1005.2 |
| 20260901093054 | 66 | 220 | 1.0 | 2.0 | 0.00 | 0.00 | 0.00 | 40 | 1005.2 |
| 20260901091552 | 66 | 203 | 1.0 | 2.0 | 0.00 | 0.00 | 0.00 | 42 | 1005.4 |
| 20260901090050 | 66 | 205 | 0.0 | 2.0 | 0.00 | 0.00 | 0.00 | 39 | 1005.4 |
| 20260901084547 | 67 | 187 | 0.0 | 2.0 | 0.00 | 0.00 | 0.00 | 35 | 1005.5 |
| 20260901083044 | 67 | 193 | 0.0 | 4.0 | 0.00 | 0.00 | 0.00 | 34 | 1005.6 |
| 20260901081545 | 67 | 197 | 0.0 | 2.0 | 0.00 | 0.00 | 0.00 | 32 | 1005.7 |
| 20260901080039 | 68 | 214 | 1.0 | 2.0 | 0.00 | 0.00 | 0.00 | 32 | 1005.7 |
| 20260901074540 | 69 | 199 | 1.0 | 2.0 | 0.00 | 0.00 | 0.00 | 31 | 1005.7 |
| 20260901073034 | 69 | 212 | 1.0 | 5.0 | 0.00 | 0.00 | 0.00 | 29 | 1005.6 |
| 20260901071531 | 70 | 221 | 1.0 | 2.0 | 0.00 | 0.00 | 0.00 | 26 | 1005.7 |
| 20260901070032 | 70 | 199 | 1.0 | 2.0 | 0.00 | 0.00 | 0.00 | 23 | 1005.5 |
| 20260901064537 | 70 | 189 | 1.0 | 3.0 | 0.00 | 0.00 | 0.00 | 23 | 1005.6 |
| 20260901063030 | 70 | 201 | 1.0 | 2.0 | 0.00 | 0.00 | 0.00 | 24 | 1005.5 |
| 20260901061525 | 69 | 207 | 1.0 | 2.0 | 0.00 | 0.00 | 0.00 | 26 | 1005.5 |
| 20260901060022 | 71 | 183 | 1.0 | 3.0 | 0.00 | 0.00 | 0.00 | 23 | 1005.4 |
| 20260901054523 | 71 | 212 | 1.0 | 3.0 | 0.00 | 0.00 | 0.00 | 23 | 1005.3 |
| 20260901053021 | 71 | 197 | 1.0 | 3.0 | 0.00 | 0.00 | 0.00 | 23 | 1005.2 |
| 20260901051520 | 71 | 194 | 1.0 | 3.0 | 0.00 | 0.00 | 0.00 | 22 | 1005.3 |
| 20260901050020 | 71 | 190 | 1.0 | 3.0 | 0.00 | 0.00 | 0.00 | 24 | 1005.2 |
| 20260901044518 | 71 | 194 | 1.0 | 3.0 | 0.00 | 0.00 | 0.00 | 28 | 1004.9 |
| 20260901043021 | 71 | 191 | 1.0 | 3.0 | 0.00 | 0.00 | 0.00 | 31 | 1004.8 |
| 20260901041516 | 71 | 189 | 1.0 | 3.0 | 0.00 | 0.00 | 0.00 | 34 | 1004.8 |
| 20260901040016 | 70 | 181 | 1.0 | 3.0 | 0.00 | 0.00 | 0.00 | 42 | 1004.4 |
| 20260901034517 | 70 | 179 | 1.0 | 3.0 | 0.00 | 0.00 | 0.00 | 48 | 1004.3 |
| 20260901033014 | 71 | 183 | 1.0 | 2.0 | 0.00 | 0.00 | 0.00 | 49 | 1004.2 |
| 20260901031513 | 71 | 212 | 1.0 | 3.0 | 0.00 | 0.00 | 0.00 | 49 | 1003.7 |
| 20260901030012 | 72 | 195 | 1.0 | 3.0 | 0.00 | 0.00 | 0.00 | 48 | 1003.4 |
| 20260901024512 | 72 | 208 | 1.0 | 6.0 | 0.00 | 0.00 | 0.00 | 47 | 1003.0 |
| 20260901023026 | 73 | 168 | 1.0 | 3.0 | 0.00 | 0.00 | 0.00 | 46 | 1002.8 |
| 20260901021518 | 74 | 180 | 1.0 | 3.0 | 0.00 | 0.00 | 0.00 | 42 | 1002.9 |
| 20260901020010 | 75 | 189 | 1.0 | 4.0 | 0.00 | 0.00 | 0.00 | 40 | 1003.2 |
| 20260901014509 | 77 | 194 | 1.0 | 5.0 | 0.00 | 0.00 | 0.00 | 37 | 1003.4 |
| 20260901013009 | 78 | 181 | 1.0 | 9.0 | 0.00 | 0.00 | 0.00 | 32 | 1003.1 |
| 20260901011508 | 79 | 197 | 1.0 | 4.0 | 0.00 | 0.00 | 0.00 | 31 | 1003.3 |
| 20260901010008 | 79 | 183 | 1.0 | 3.0 | 0.00 | 0.00 | 0.00 | 31 | 1003.5 |
| 20260901004508 | 79 | 207 | 1.0 | 3.0 | 0.00 | 0.00 | 0.00 | 36 | 1003.4 |
| 20260901003007 | 80 | 189 | 1.0 | 4.0 | 0.00 | 0.00 | 0.00 | 38 | 1003.5 |
| 20260901001506 | 80 | 204 | 2.0 | 3.0 | 0.00 | 0.00 | 0.00 | 36 | 1003.4 |
| 20260901000006 | 80 | 213 | 2.0 | 7.0 | 0.00 | 0.00 | 0.00 | 33 | 1003.4 |
| 20260831234505 | 81 | 190 | 2.0 | 9.0 | 0.00 | 0.00 | 0.00 | 32 | 1003.0 |
| 20260831233010 | 81 | 189 | 2.0 | 5.0 | 0.00 | 0.00 | 0.00 | 30 | 1003.0 |
| 20260831231503 | 82 | 210 | 1.0 | 4.0 | 0.00 | 0.00 | 0.00 | 28 | 1003.0 |
| 20260831230002 | 82 | 189 | 2.0 | 7.0 | 0.00 | 0.00 | 0.00 | 27 | 1003.4 |
| 20260831224501 | 82 | 206 | 1.0 | 9.0 | 0.00 | 0.00 | 0.00 | 25 | 1003.6 |
| 20260831223059 | 82 | 196 | 1.0 | 6.0 | 0.00 | 0.00 | 0.00 | 23 | 1003.7 |
| 20260831221559 | 82 | 156 | 1.0 | 4.0 | 0.00 | 0.00 | 0.00 | 25 | 1003.9 |
| 20260831220058 | 82 | 227 | 1.0 | 6.0 | 0.00 | 0.00 | 0.00 | 28 | 1004.1 |
| 20260831214617 | 83 | 182 | 1.0 | 7.0 | 0.00 | 0.00 | 0.00 | 24 | 1004.2 |
| 20260831213059 | 83 | 218 | 1.0 | 3.0 | 0.00 | 0.00 | 0.00 | 24 | 1004.3 |
| 20260831211555 | 83 | 190 | 1.0 | 9.0 | 0.00 | 0.00 | 0.00 | 22 | 1004.4 |
| 20260831210053 | 82 | 220 | 2.0 | 6.0 | 0.00 | 0.00 | 0.00 | 24 | 1004.3 |
| 20260831204552 | 83 | 216 | 2.0 | 3.0 | 0.00 | 0.00 | 0.00 | 23 | 1004.4 |
| 20260831203051 | 82 | 192 | 1.0 | 6.0 | 0.00 | 0.00 | 0.00 | 24 | 1004.4 |
| 20260831201550 | 82 | 213 | 1.0 | 7.0 | 0.00 | 0.00 | 0.00 | 25 | 1004.5 |
| 20260831200050 | 82 | 190 | 2.0 | 5.0 | 0.00 | 0.00 | 0.00 | 22 | 1004.4 |
| 20260831194608 | 82 | 229 | 1.0 | 4.0 | 0.00 | 0.00 | 0.00 | 23 | 1004.5 |
| 20260831193047 | 83 | 149 | 1.0 | 3.0 | 0.00 | 0.00 | 0.00 | 22 | 1004.5 |
| 20260831191545 | 82 | 208 | 2.0 | 4.0 | 0.00 | 0.00 | 0.00 | 22 | 1004.7 |
| 20260831190047 | 82 | 206 | 1.0 | 3.0 | 0.00 | 0.00 | 0.00 | 24 | 1004.7 |
| 20260831184541 | 82 | 185 | 2.0 | 6.0 | 0.00 | 0.00 | 0.00 | 23 | 1004.7 |
| 20260831183041 | 83 | 208 | 2.0 | 3.0 | 0.00 | 0.00 | 0.00 | 23 | 1004.7 |
| 20260831181540 | 82 | 209 | 2.0 | 6.0 | 0.00 | 0.00 | 0.00 | 22 | 1004.5 |
| 20260831180040 | 82 | 185 | 1.0 | 3.0 | 0.00 | 0.00 | 0.00 | 20 | 1004.5 |
| 20260831174538 | 82 | 214 | 1.0 | 3.0 | 0.00 | 0.00 | 0.00 | 19 | 1004.7 |
| 20260831173037 | 82 | 193 | 1.0 | 4.0 | 0.00 | 0.00 | 0.00 | 18 | 1004.6 |
| 20260831171533 | 81 | 189 | 1.0 | 3.0 | 0.00 | 0.00 | 0.00 | 18 | 1004.4 |
| 20260831170033 | 80 | 228 | 1.0 | 3.0 | 0.00 | 0.00 | 0.00 | 20 | 1004.5 |
| 20260831164530 | 80 | 198 | 1.0 | 3.0 | 0.00 | 0.00 | 0.00 | 21 | 1004.3 |
| 20260831163031 | 80 | 168 | 1.0 | 3.0 | 0.00 | 0.00 | 0.00 | 22 | 1004.3 |
| 20260831161532 | 79 | 182 | 1.0 | 2.0 | 0.00 | 0.00 | 0.00 | 23 | 1004.1 |
| 20260831160025 | 79 | 214 | 1.0 | 4.0 | 0.00 | 0.00 | 0.00 | 23 | 1004.2 |
| 20260831154524 | 78 | 200 | 0.0 | 3.0 | 0.00 | 0.00 | 0.00 | 23 | 1004.2 |
| 20260831153022 | 78 | 181 | 0.0 | 3.0 | 0.00 | 0.00 | 0.00 | 24 | 1004.2 |
| 20260831151521 | 77 | 176 | 0.0 | 3.0 | 0.00 | 0.00 | 0.00 | 24 | 1004.1 |
| 20260831150016 | 75 | 235 | 0.0 | 0.0 | 0.00 | 0.00 | 0.00 | 28 | 1004.1 |
| 20260831144513 | 74 | 239 | 0.0 | 0.0 | 0.00 | 0.00 | 0.00 | 30 | 1004.1 |
| 20260831143011 | 73 | 196 | 0.0 | 1.0 | 0.00 | 0.00 | 0.00 | 32 | 1004.1 |
| 20260831141508 | 72 | 217 | 0.0 | 0.0 | 0.00 | 0.00 | 0.00 | 35 | 1003.8 |
| 20260831140007 | 71 | 231 | 0.0 | 0.0 | 0.00 | 0.00 | 0.00 | 36 | 1003.5 |
| 20260831134507 | 72 | 241 | 0.0 | 2.0 | 0.00 | 0.00 | 0.00 | 35 | 1003.3 |
| 20260831133006 | 71 | 359 | 0.0 | 2.0 | 0.00 | 0.00 | 0.00 | 38 | 1003.2 |
| 20260831131505 | 71 | 359 | 0.0 | 2.0 | 0.00 | 0.00 | 0.00 | 42 | 1002.9 |
| 20260831130003 | 72 | 359 | 0.0 | 0.0 | 0.00 | 0.00 | 0.00 | 42 | 1003.0 |
| 20260831124503 | 72 | 191 | 0.0 | 2.0 | 0.00 | 0.00 | 0.00 | 43 | 1002.9 |
| 20260831123002 | 72 | 197 | 1.0 | 3.0 | 0.00 | 0.00 | 0.00 | 41 | 1002.7 |
| 20260831121502 | 72 | 190 | 0.0 | 2.0 | 0.00 | 0.00 | 0.00 | 42 | 1002.7 |
| 20260831120100 | 73 | 359 | 0.0 | 3.0 | 0.00 | 0.00 | 0.00 | 40 | 1002.6 |